Regional Weather Roundup
Issued by NWS Midland/Odessa, TX

Skip options and go directly to product.
Home | Oldest Version | Next Version | Current Version | All | Text Only | Save Text | Print | Product List | Glossary On

Skip product version selection by date and time.   
529
ASUS44 KMAF 020901
RWRMAF
MIDLAND AREA WEATHER ROUNDUP
NATIONAL WEATHER SERVICE MIDLAND TX
300 AM CST FRI DEC 02 2016

...IN SOUTHWEST TEXAS AND SOUTHEAST NEW MEXICO...

CITY           SKY/WX    TMP DP  RH WIND       PRES   REMARKS
ALPINE         CLOUDY    37  27  67 NW3       29.99F
ANDREWS        FAIR      39  36  88 CALM      29.96S
ARTESIA        PTCLDY    34  19  55 NW7       29.96S WCI  28
BIG SPRING     PTCLDY    46  43  88 SE5       29.99R
CARLSBAD       PTCLDY    36  23  59 NW5       29.95R WCI  32
DRYDEN           N/A     47  44  90 N8        29.92R
FORT STOCKTON  CLOUDY    48  40  73 SE12      29.92R
GUAD PASS      CLOUDY    45  25  45 NE14      29.97R WCI  38
HOBBS          CLOUDY    32  25  74 N5        29.97R WCI  27
MARFA          CLOUDY    34  24  67 N6        29.96F WCI  29
MIDLAND AIRPK  CLOUDY    47  40  76 CALM      29.96R
MIDLAND INTL   PTCLDY    43  36  76 CALM      29.94S
ODESSA         PTCLDY    45  39  79 S6        29.94S
PECOS          CLOUDY    35  29  81 W3        29.92S
PRESIDIO       FAIR      52  29  42 CALM      29.91R
SEMINOLE       CLOUDY    36  29  77 CALM      29.98R
SNYDER         CLEAR     41  34  76 E3        30.00R
WINK           CLOUDY    45  41  86 E6        29.92R
$$
...OTHER STATIONS IN TEXAS...

CITY           SKY/WX    TMP DP  RH WIND       PRES   REMARKS
ABILENE        CLEAR     46  38  73 SE8       30.01R
AMARILLO       CLOUDY    31  19  61 NE9       30.05R WCI  23
AUSTIN         CLOUDY    50  46  86 CALM      30.06S
BROWNSVILLE    LGT RAIN  73  70  90 E8        29.93F
CORPUS CHRISTI CLOUDY    69  64  84 E8        29.97S
DALLAS FTW     PTCLDY    52  32  47 SE6       30.07R
DEL RIO        CLOUDY    60  54  80 SE13      29.94F
EL PASO        MOCLDY    40  17  39 NE7       29.91S WCI  35
HOUSTON INT    MOCLDY    50  45  83 N3        30.09R
LUBBOCK        PTCLDY    35  16  45 NE8       29.99S WCI  29
SAN ANGELO     MOCLDY    42  39  89 CALM      29.98S
SAN ANTONIO    CLOUDY    57  48  72 E6        30.03F
WACO           CLEAR     49  39  68 S9        30.08S
WICHITA FALLS  NOT AVBL
$$
...OTHER LOCATIONS IN NEW MEXICO...

CITY           SKY/WX    TMP DP  RH WIND       PRES   REMARKS
ALAMAGORDO     NOT AVBL
ALBUQUERQUE    CLOUDY    32  16  51 N10       29.96F WCI  24
CANNON AFB     CLOUDY    29  16  58 E7        29.99S WCI  22
CLOVIS         CLOUDY    30  14  51 NE9       29.99F WCI  22
HOLLOMAN AFB   CLOUDY    33  15  48 E3        29.96S
ROSWELL        CLOUDY    34  17  50 E8        29.95R WCI  27
RUIDOSO        CLOUDY    32  14  47 NE7       29.99R WCI  26
SANTA FE       CLOUDY    26  15  63 N13       29.96F WCI  15
TRUTH OR CONSE CLOUDY    39  16  39 CALM      29.92R
TUCUMCARI      CLEAR     28  14  55 NE6       30.03R WCI  22
$$

  • National Weather Service
  • Southern Region Headquarters
  • 819 Taylor Street, Room 10A06
  • Fort Worth, TX 76102
  • Page Author: NWS Fort Worth
  • Web Master: SR-SRH.Webmaster@noaa.gov
  •  
  • Page last modified: 30-Sep-2016 6:36 PM UTC
USA.gov is the U.S. government's official web portal to all federal, state and local government web resources and services.